QPF
0.00 0.00 0.00 0.00 0.00 0.00 0.00 0.00 0.00 0.00 0.00 0.00 0.00 0.00 0.00 0.00 0.00 0.00 0.00 0.00 0.00 0.00 0.00 0.00 0.01 0.01 0.02 0.03 0.03 0.02 0.01 0.01 0.01 0.01 0.01 0.01 0.00 0.00 0.00 0.01 0.01 0.01 0.01
0.00 0.00 0.00 0.00 0.00 0.00 0.00 0.01 0.01 0.01 0.01 0.00 0.00 0.00 0.00 0.00 0.00 0.00 0.00 0.00 0.00 0.00 0.00 0.00 0.01 0.01 0.02 0.03 0.02 0.02 0.02 0.01 0.01 0.01 0.01 0.01 0.01 0.01 0.01 0.01 0.01 0.01 0.01
0.00 0.00 0.01 0.01 0.01 0.01 0.01 0.01 0.01 0.00 0.00 0.00 0.00 0.00 0.00 0.00 0.00 0.00 0.00 0.00 0.00 0.00 0.00 0.01 0.01 0.02 0.02 0.02 0.02 0.02 0.02 0.02 0.01 0.01 0.01 0.01 0.01 0.01 0.02 0.02 0.01 0.01 0.01
0.01 0.01 0.01 0.01 0.00 0.00 0.01 0.01 0.00 0.00 0.00 0.00 0.00 0.00 0.01 0.01 0.00 0.00 0.00 0.00 0.00 0.00 0.00 0.00 0.01 0.01 0.01 0.01 0.02 0.03 0.03 0.03 0.03 0.02 0.02 0.02 0.01 0.01 0.02 0.02 0.02 0.02 0.02
0.03 0.04 0.04 0.03 0.02 0.02 0.02 0.02 0.02 0.01 0.01 0.01 0.01 0.01 0.01 0.01 0.00 0.00 0.00 0.00 0.00 0.00 0.00 0.00 0.00 0.00 0.01 0.01 0.01 0.02 0.03 0.02 0.02 0.02 0.03 0.03 0.03 0.02 0.02 0.02 0.02 0.02 0.02
0.04 0.04 0.04 0.04 0.04 0.04 0.04 0.04 0.03 0.02 0.02 0.02 0.01 0.01 0.01 0.01 0.01 0.00 0.00 0.00 0.00 0.00 0.00 0.00 0.00 0.00 0.00 0.00 0.00 0.01 0.02 0.02 0.02 0.01 0.02 0.03 0.04 0.04 0.05 0.04 0.03 0.02 0.02
0.07 0.07 0.06 0.05 0.05 0.04 0.04 0.04 0.04 0.04 0.04 0.03 0.03 0.02 0.01 0.01 0.01 0.00 0.00 0.00 0.00 0.00 0.00 0.00 0.00 0.00 0.00 0.00 0.00 0.00 0.01 0.02 0.02 0.02 0.02 0.02 0.03 0.04 0.06 0.07 0.06 0.05 0.04
0.08 0.09 0.08 0.08 0.08 0.08 0.06 0.06 0.06 0.06 0.06 0.05 0.04 0.02 0.01 0.00 0.00 0.00 0.00 0.00 0.00 0.00 0.00 0.00 0.00 0.00 0.00 0.00 0.00 0.00 0.00 0.01 0.02 0.02 0.03 0.03 0.03 0.03 0.04 0.05 0.05 0.06 0.06
0.10 0.10 0.11 0.12 0.12 0.11 0.10 0.10 0.08 0.07 0.05 0.04 0.04 0.04 0.02 0.01 0.01 0.01 0.01 0.01 0.01 0.01 0.01 0.00 0.00 0.00 0.00 0.00 0.00 0.00 0.00 0.00 0.01 0.01 0.02 0.03 0.04 0.04 0.05 0.05 0.05 0.06 0.07
0.13 0.13 0.13 0.13 0.14 0.14 0.14 0.12 0.10 0.08 0.06 0.05 0.04 0.03 0.03 0.03 0.02 0.02 0.01 0.00 0.00 0.00 0.00 0.00 0.00 0.00 0.00 0.00 0.00 0.00 0.00 0.00 0.01 0.02 0.03 0.03 0.03 0.04 0.06 0.06 0.07 0.09 0.08
0.13 0.14 0.15 0.16 0.15 0.14 0.13 0.10 0.10 0.08 0.06 0.05 0.04 0.04 0.04 0.03 0.03 0.02 0.01 0.00 0.00 0.00 0.00 0.00 0.00 0.00 0.00 0.00 0.00 0.00 0.00 0.00 0.01 0.02 0.04 0.03 0.02 0.03 0.05 0.05 0.06 0.09 0.11
0.17 0.15 0.15 0.14 0.13 0.12 0.11 0.11 0.10 0.09 0.07 0.06 0.06 0.05 0.04 0.03 0.02 0.02 0.01 0.01 0.00 0.00 0.00 0.00 0.00 0.00 0.00 0.00 0.00 0.00 0.00 0.01 0.01 0.03 0.04 0.03 0.02 0.03 0.04 0.04 0.05 0.07 0.11
0.16 0.16 0.16 0.15 0.14 0.13 0.13 0.13 0.12 0.10 0.08 0.07 0.06 0.06 0.05 0.04 0.03 0.03 0.02 0.02 0.01 0.00 0.00 0.00 0.00 0.00 0.00 0.00 0.00 0.00 0.00 0.01 0.01 0.01 0.02 0.01 0.01 0.02 0.03 0.04 0.04 0.05 0.08
0.11 0.13 0.14 0.13 0.13 0.12 0.11 0.10 0.10 0.10 0.09 0.08 0.08 0.07 0.06 0.05 0.03 0.03 0.02 0.02 0.02 0.01 0.00 0.00 0.00 0.00 0.00 0.00 0.00 0.00 0.00 0.01 0.01 0.01 0.01 0.00 0.01 0.01 0.01 0.02 0.02 0.03 0.04
0.11 0.11 0.11 0.11 0.11 0.09 0.07 0.07 0.08 0.09 0.08 0.08 0.07 0.06 0.05 0.04 0.03 0.02 0.02 0.02 0.02 0.02 0.01 0.01 0.00 0.00 0.00 0.00 0.01 0.00 0.00 0.01 0.01 0.00 0.00 0.00 0.01 0.01 0.01 0.01 0.01 0.01 0.03
0.10 0.09 0.09 0.09 0.09 0.09 0.08 0.07 0.08 0.09 0.09 0.08 0.07 0.07 0.06 0.05 0.04 0.04 0.03 0.02 0.02 0.02 0.01 0.01 0.00 0.00 0.00 0.00 0.01 0.00 0.00 0.01 0.01 0.00 0.00 0.00 0.00 0.01 0.01 0.00 0.01 0.01 0.02
0.10 0.10 0.10 0.10 0.09 0.08 0.08 0.07 0.07 0.08 0.08 0.08 0.07 0.05 0.05 0.04 0.04 0.04 0.03 0.03 0.02 0.02 0.01 0.01 0.00 0.00 0.00 0.00 0.00 0.00 0.00 0.00 0.01 0.01 0.01 0.01 0.01 0.01 0.01 0.01 0.01 0.01 0.02
0.11 0.09 0.09 0.10 0.10 0.09 0.08 0.07 0.06 0.06 0.06 0.06 0.05 0.05 0.04 0.04 0.04 0.03 0.03 0.03 0.02 0.02 0.01 0.01 0.01 0.01 0.01 0.00 0.01 0.01 0.01 0.00 0.00 0.01 0.01 0.01 0.01 0.01 0.01 0.01 0.01 0.01 0.01
0.10 0.11 0.09 0.08 0.08 0.08 0.07 0.06 0.05 0.04 0.03 0.03 0.03 0.03 0.02 0.02 0.02 0.02 0.02 0.02 0.02 0.02 0.01 0.01 0.00 0.00 0.00 0.01 0.01 0.01 0.00 0.00 0.00 0.01 0.01 0.01 0.01 0.01 0.01 0.02 0.02 0.02 0.01
0.05 0.07 0.08 0.08 0.06 0.05 0.04 0.04 0.03 0.03 0.03 0.03 0.03 0.02 0.01 0.01 0.01 0.02 0.01 0.01 0.01 0.01 0.01 0.00 0.00 0.00 0.00 0.00 0.00 0.01 0.01 0.01 0.01 0.01 0.01 0.01 0.01 0.00 0.01 0.01 0.02 0.02 0.02
0.03 0.03 0.03 0.04 0.03 0.03 0.03 0.03 0.03 0.03 0.03 0.02 0.02 0.02 0.02 0.02 0.02 0.01 0.01 0.01 0.01 0.01 0.00 0.00 0.00 0.00 0.00 0.00 0.00 0.00 0.01 0.01 0.01 0.01 0.01 0.00 0.00 0.00 0.00 0.00 0.01 0.01 0.01
0.03 0.02 0.02 0.02 0.02 0.01 0.02 0.02 0.02 0.02 0.02 0.02 0.02 0.02 0.02 0.01 0.01 0.01 0.01 0.01 0.00 0.00 0.00 0.00 0.00 0.00 0.00 0.00 0.00 0.00 0.00 0.01 0.01 0.01 0.00 0.00 0.00 0.00 0.00 0.00 0.00 0.00 0.00
0.02 0.02 0.01 0.01 0.01 0.01 0.02 0.02 0.02 0.02 0.02 0.02 0.01 0.01 0.01 0.01 0.01 0.00 0.00 0.00 0.00 0.00 0.00 0.00 0.00 0.00 0.00 0.00 0.00 0.00 0.00 0.00 0.00 0.00 0.00 0.00 0.00 0.00 0.00 0.00 0.00 0.00 0.00
0.02 0.02 0.01 0.01 0.01 0.01 0.01 0.02 0.02 0.01 0.02 0.02 0.01 0.01 0.00 0.00 0.00 0.00 0.00 0.00 0.00 0.00 0.00 0.00 0.00 0.00 0.00 0.00 0.00 0.00 0.00 0.00 0.00 0.00 0.01 0.01 0.00 0.00 0.00 0.00 0.00 0.00 0.00
0.02 0.02 0.02 0.02 0.02 0.02 0.02 0.03 0.02 0.01 0.01 0.01 0.01 0.01 0.01 0.00 0.00 0.00 0.00 0.00 0.00 0.00 0.00 0.00 0.00 0.00 0.00 0.00 0.00 0.00 0.00 0.00 0.00 0.00 0.00 0.00 0.00 0.00 0.00 0.00 0.00 0.00 0.00
0.02 0.02 0.02 0.01 0.01 0.02 0.02 0.02 0.02 0.01 0.01 0.01 0.00 0.00 0.00 0.00 0.00 0.00 0.00 0.00 0.00 0.00 0.00 0.00 0.00 0.00 0.00 0.00 0.00 0.00 0.00 0.00 0.00 0.00 0.00 0.00 0.00 0.00 0.00 0.00 0.00 0.00 0.00
MSLP
1017.76 1018.04 1018.31 1018.59 1018.86 1019.11 1019.31 1019.47 1019.57 1019.61 1019.62 1019.61 1019.60 1019.61 1019.64 1019.71 1019.79 1019.89 1019.98 1020.06 1020.11 1020.15 1020.16 1020.17 1020.17 1020.17 1020.19 1020.20 1020.23 1020.25 1020.28 1020.30 1020.33 1020.36 1020.39 1020.44 1020.48 1020.53 1020.57 1020.61 1020.62 1020.62 1020.60
1017.44 1017.72 1018.02 1018.33 1018.64 1018.93 1019.18 1019.37 1019.49 1019.53 1019.53 1019.51 1019.48 1019.47 1019.49 1019.54 1019.61 1019.69 1019.76 1019.82 1019.86 1019.88 1019.89 1019.91 1019.93 1019.96 1020.01 1020.07 1020.13 1020.20 1020.26 1020.31 1020.36 1020.40 1020.43 1020.46 1020.49 1020.52 1020.54 1020.55 1020.56 1020.57 1020.56
1017.10 1017.39 1017.71 1018.06 1018.42 1018.76 1019.06 1019.28 1019.42 1019.49 1019.49 1019.45 1019.41 1019.38 1019.38 1019.40 1019.45 1019.51 1019.57 1019.61 1019.65 1019.67 1019.69 1019.72 1019.77 1019.83 1019.92 1020.02 1020.12 1020.22 1020.31 1020.38 1020.43 1020.46 1020.48 1020.49 1020.48 1020.47 1020.45 1020.43 1020.41 1020.41 1020.41
1016.77 1017.06 1017.41 1017.80 1018.21 1018.60 1018.94 1019.20 1019.37 1019.45 1019.46 1019.42 1019.37 1019.33 1019.31 1019.32 1019.35 1019.39 1019.44 1019.48 1019.52 1019.55 1019.59 1019.65 1019.72 1019.83 1019.95 1020.08 1020.21 1020.32 1020.42 1020.49 1020.53 1020.54 1020.53 1020.49 1020.44 1020.38 1020.31 1020.25 1020.19 1020.17 1020.17
1016.47 1016.77 1017.14 1017.56 1018.01 1018.44 1018.81 1019.10 1019.29 1019.39 1019.41 1019.38 1019.33 1019.29 1019.27 1019.27 1019.30 1019.34 1019.39 1019.44 1019.49 1019.54 1019.61 1019.69 1019.81 1019.94 1020.08 1020.23 1020.36 1020.48 1020.57 1020.62 1020.63 1020.61 1020.56 1020.48 1020.38 1020.27 1020.15 1020.03 1019.93 1019.87 1019.85
1016.21 1016.51 1016.89 1017.34 1017.80 1018.25 1018.64 1018.95 1019.16 1019.27 1019.30 1019.29 1019.25 1019.23 1019.22 1019.24 1019.28 1019.34 1019.40 1019.47 1019.55 1019.63 1019.73 1019.85 1019.99 1020.14 1020.30 1020.44 1020.57 1020.66 1020.72 1020.74 1020.72 1020.66 1020.57 1020.45 1020.31 1020.16 1019.99 1019.82 1019.68 1019.57 1019.52
1015.96 1016.27 1016.66 1017.11 1017.58 1018.03 1018.42 1018.73 1018.95 1019.07 1019.12 1019.13 1019.13 1019.13 1019.15 1019.20 1019.27 1019.36 1019.45 1019.56 1019.67 1019.79 1019.93 1020.08 1020.24 1020.41 1020.56 1020.69 1020.79 1020.85 1020.87 1020.85 1020.79 1020.69 1020.57 1020.43 1020.26 1020.08 1019.87 1019.67 1019.47 1019.31 1019.20
1015.70 1016.02 1016.41 1016.86 1017.33 1017.77 1018.15 1018.45 1018.67 1018.80 1018.87 1018.91 1018.94 1018.98 1019.05 1019.13 1019.24 1019.37 1019.50 1019.65 1019.80 1019.96 1020.14 1020.32 1020.51 1020.68 1020.83 1020.95 1021.02 1021.04 1021.01 1020.95 1020.86 1020.74 1020.60 1020.44 1020.26 1020.06 1019.84 1019.59 1019.35 1019.12 1018.95
1015.40 1015.74 1016.14 1016.59 1017.04 1017.47 1017.83 1018.12 1018.33 1018.48 1018.57 1018.64 1018.71 1018.80 1018.90 1019.04 1019.19 1019.35 1019.53 1019.71 1019.90 1020.11 1020.32 1020.54 1020.75 1020.93 1021.09 1021.19 1021.23 1021.22 1021.17 1021.07 1020.95 1020.82 1020.68 1020.52 1020.35 1020.14 1019.90 1019.62 1019.32 1019.03 1018.76
1015.04 1015.41 1015.84 1016.29 1016.73 1017.14 1017.49 1017.77 1017.98 1018.13 1018.25 1018.35 1018.46 1018.59 1018.74 1018.91 1019.09 1019.29 1019.50 1019.72 1019.95 1020.19 1020.44 1020.69 1020.93 1021.14 1021.30 1021.41 1021.44 1021.42 1021.34 1021.24 1021.11 1020.97 1020.84 1020.69 1020.52 1020.32 1020.07 1019.76 1019.40 1019.02 1018.65
1014.63 1015.04 1015.49 1015.96 1016.40 1016.81 1017.15 1017.42 1017.64 1017.80 1017.95 1018.09 1018.23 1018.40 1018.58 1018.78 1018.99 1019.20 1019.43 1019.67 1019.92 1020.20 1020.48 1020.77 1021.05 1021.29 1021.49 1021.61 1021.66 1021.64 1021.57 1021.46 1021.34 1021.21 1021.09 1020.96 1020.80 1020.60 1020.33 1019.98 1019.56 1019.09 1018.61
1014.16 1014.63 1015.12 1015.61 1016.07 1016.48 1016.82 1017.10 1017.33 1017.52 1017.70 1017.87 1018.05 1018.25 1018.45 1018.67 1018.89 1019.11 1019.34 1019.59 1019.86 1020.15 1020.47 1020.80 1021.12 1021.41 1021.65 1021.81 1021.89 1021.90 1021.85 1021.76 1021.66 1021.55 1021.43 1021.31 1021.16 1020.95 1020.66 1020.28 1019.79 1019.23 1018.64
1013.66 1014.20 1014.74 1015.26 1015.74 1016.16 1016.53 1016.83 1017.08 1017.30 1017.52 1017.73 1017.94 1018.17 1018.39 1018.61 1018.82 1019.04 1019.26 1019.50 1019.77 1020.09 1020.43 1020.80 1021.17 1021.51 1021.80 1022.02 1022.15 1022.21 1022.20 1022.14 1022.05 1021.96 1021.86 1021.74 1021.59 1021.37 1021.06 1020.63 1020.09 1019.45 1018.75
1013.16 1013.77 1014.36 1014.92 1015.43 1015.88 1016.26 1016.60 1016.89 1017.16 1017.41 1017.67 1017.92 1018.17 1018.40 1018.62 1018.83 1019.03 1019.23 1019.46 1019.72 1020.04 1020.40 1020.80 1021.22 1021.61 1021.97 1022.25 1022.44 1022.55 1022.59 1022.57 1022.51 1022.43 1022.34 1022.22 1022.06 1021.83 1021.49 1021.04 1020.45 1019.75 1018.98
1012.71 1013.37 1014.00 1014.60 1015.14 1015.62 1016.04 1016.41 1016.75 1017.07 1017.38 1017.69 1017.98 1018.26 1018.51 1018.73 1018.92 1019.10 1019.28 1019.48 1019.73 1020.04 1020.42 1020.84 1021.29 1021.74 1022.14 1022.49 1022.74 1022.91 1023.00 1023.01 1022.98 1022.92 1022.84 1022.72 1022.55 1022.31 1021.96 1021.49 1020.88 1020.16 1019.36
1012.33 1013.03 1013.70 1014.33 1014.89 1015.40 1015.86 1016.28 1016.67 1017.05 1017.42 1017.78 1018.12 1018.43 1018.70 1018.93 1019.11 1019.27 1019.42 1019.60 1019.83 1020.13 1020.49 1020.92 1021.40 1021.88 1022.33 1022.72 1023.03 1023.25 1023.38 1023.44 1023.44 1023.40 1023.32 1023.21 1023.04 1022.80 1022.45 1021.99 1021.40 1020.69 1019.91
1012.08 1012.81 1013.49 1014.13 1014.71 1015.24 1015.73 1016.19 1016.64 1017.08 1017.51 1017.93 1018.33 1018.68 1018.97 1019.21 1019.39 1019.53 1019.66 1019.81 1020.01 1020.28 1020.63 1021.05 1021.53 1022.02 1022.50 1022.92 1023.27 1023.54 1023.71 1023.80 1023.83 1023.81 1023.75 1023.64 1023.49 1023.26 1022.95 1022.52 1021.98 1021.33 1020.61
1011.97 1012.70 1013.39 1014.02 1014.61 1015.15 1015.67 1016.17 1016.66 1017.16 1017.65 1018.13 1018.58 1018.97 1019.29 1019.54 1019.73 1019.85 1019.97 1020.09 1020.26 1020.49 1020.81 1021.21 1021.66 1022.15 1022.63 1023.07 1023.44 1023.73 1023.93 1024.06 1024.12 1024.12 1024.08 1024.00 1023.88 1023.69 1023.42 1023.05 1022.59 1022.04 1021.41
1012.01 1012.73 1013.40 1014.03 1014.61 1015.15 1015.68 1016.21 1016.74 1017.29 1017.84 1018.37 1018.86 1019.29 1019.64 1019.91 1020.09 1020.21 1020.30 1020.40 1020.53 1020.73 1021.01 1021.36 1021.78 1022.24 1022.69 1023.13 1023.50 1023.81 1024.04 1024.19 1024.28 1024.31 1024.30 1024.26 1024.17 1024.03 1023.83 1023.55 1023.19 1022.75 1022.25
1012.20 1012.89 1013.54 1014.14 1014.70 1015.23 1015.77 1016.31 1016.88 1017.46 1018.05 1018.62 1019.15 1019.61 1019.98 1020.26 1020.45 1020.57 1020.64 1020.71 1020.80 1020.96 1021.18 1021.49 1021.86 1022.27 1022.69 1023.10 1023.47 1023.77 1024.01 1024.19 1024.30 1024.37 1024.40 1024.40 1024.36 1024.28 1024.15 1023.97 1023.72 1023.41 1023.05
1012.50 1013.16 1013.77 1014.34 1014.87 1015.39 1015.92 1016.48 1017.06 1017.66 1018.28 1018.87 1019.43 1019.91 1020.29 1020.58 1020.77 1020.88 1020.94 1020.98 1021.04 1021.16 1021.33 1021.58 1021.89 1022.25 1022.63 1023.01 1023.35 1023.65 1023.89 1024.08 1024.22 1024.32 1024.39 1024.43 1024.45 1024.43 1024.38 1024.29 1024.15 1023.96 1023.74
1012.86 1013.49 1014.06 1014.59 1015.10 1015.60 1016.12 1016.67 1017.26 1017.88 1018.50 1019.11 1019.67 1020.16 1020.55 1020.84 1021.03 1021.13 1021.18 1021.20 1021.24 1021.31 1021.45 1021.65 1021.91 1022.21 1022.54 1022.87 1023.19 1023.47 1023.71 1023.91 1024.07 1024.21 1024.31 1024.40 1024.47 1024.51 1024.53 1024.52 1024.47 1024.39 1024.28
1013.22 1013.82 1014.36 1014.86 1015.34 1015.82 1016.33 1016.88 1017.46 1018.08 1018.70 1019.31 1019.87 1020.36 1020.75 1021.03 1021.21 1021.31 1021.35 1021.37 1021.39 1021.44 1021.54 1021.70 1021.92 1022.17 1022.46 1022.75 1023.04 1023.30 1023.54 1023.74 1023.93 1024.08 1024.22 1024.35 1024.46 1024.55 1024.63 1024.68 1024.71 1024.71 1024.69
1013.54 1014.10 1014.61 1015.09 1015.55 1016.02 1016.51 1017.05 1017.63 1018.23 1018.85 1019.45 1020.00 1020.48 1020.86 1021.14 1021.32 1021.42 1021.47 1021.49 1021.51 1021.55 1021.64 1021.77 1021.96 1022.18 1022.44 1022.70 1022.96 1023.20 1023.43 1023.65 1023.84 1024.02 1024.18 1024.34 1024.48 1024.61 1024.73 1024.83 1024.90 1024.96 1025.01
1013.76 1014.30 1014.79 1015.25 1015.69 1016.15 1016.64 1017.17 1017.74 1018.33 1018.94 1019.52 1020.06 1020.52 1020.90 1021.17 1021.36 1021.47 1021.53 1021.57 1021.61 1021.66 1021.76 1021.89 1022.06 1022.27 1022.50 1022.75 1022.99 1023.22 1023.45 1023.66 1023.86 1024.05 1024.24 1024.41 1024.58 1024.74 1024.88 1025.00 1025.10 1025.19 1025.27
1013.87 1014.39 1014.87 1015.32 1015.76 1016.21 1016.69 1017.22 1017.78 1018.36 1018.95 1019.52 1020.04 1020.49 1020.86 1021.15 1021.34 1021.48 1021.56 1021.63 1021.70 1021.78 1021.90 1022.05 1022.23 1022.44 1022.67 1022.90 1023.13 1023.36 1023.58 1023.79 1024.00 1024.20 1024.39 1024.58 1024.76 1024.93 1025.08 1025.22 1025.33 1025.42 1025.50
Thickness
5688 5686 5686 5684 5684 5683 5682 5682 5682 5682 5681 5681 5680 5680 5680 5679 5678 5677 5675 5672 5670 5668 5667 5665 5664 5662 5660 5657 5655 5653 5650 5648 5645 5642 5639 5636 5633 5630 5628 5625 5622 5619 5616
5683 5682 5682 5680 5680 5679 5678 5678 5678 5677 5677 5676 5676 5675 5675 5675 5673 5672 5670 5668 5665 5664 5662 5660 5659 5657 5655 5653 5651 5648 5645 5643 5640 5637 5634 5631 5628 5625 5622 5619 5616 5614 5611
5679 5678 5678 5676 5675 5675 5674 5673 5673 5673 5672 5671 5671 5670 5670 5669 5667 5666 5664 5663 5661 5659 5657 5655 5653 5651 5649 5647 5645 5642 5640 5637 5634 5631 5628 5625 5622 5619 5616 5614 5611 5608 5606
5674 5674 5673 5672 5671 5670 5669 5668 5668 5667 5667 5666 5666 5665 5664 5662 5661 5660 5658 5656 5655 5653 5651 5648 5647 5645 5642 5640 5638 5635 5633 5630 5628 5625 5622 5619 5616 5614 5611 5609 5606 5603 5600
5669 5669 5668 5667 5666 5665 5664 5663 5662 5662 5662 5660 5660 5658 5658 5657 5655 5653 5652 5650 5648 5645 5644 5642 5639 5637 5635 5633 5631 5628 5626 5624 5621 5618 5616 5613 5610 5608 5605 5603 5601 5597 5595
5664 5663 5663 5662 5662 5660 5659 5658 5657 5656 5656 5654 5652 5651 5650 5650 5648 5646 5645 5642 5640 5638 5636 5634 5632 5630 5627 5625 5623 5621 5618 5616 5613 5611 5608 5606 5604 5601 5599 5597 5595 5592 5589
5660 5659 5658 5658 5657 5656 5655 5653 5652 5650 5648 5647 5644 5643 5643 5642 5641 5638 5636 5635 5632 5630 5628 5625 5623 5621 5619 5616 5614 5612 5610 5608 5606 5604 5601 5599 5597 5595 5592 5590 5588 5586 5584
5655 5654 5654 5653 5652 5651 5650 5648 5645 5644 5642 5640 5639 5636 5636 5636 5633 5630 5628 5625 5623 5620 5618 5616 5614 5612 5610 5608 5605 5602 5600 5599 5598 5596 5594 5592 5589 5587 5585 5583 5582 5580 5578
5650 5650 5649 5647 5646 5644 5643 5641 5639 5637 5636 5634 5633 5632 5629 5630 5628 5623 5620 5617 5614 5612 5609 5606 5604 5601 5599 5597 5595 5593 5590 5589 5588 5587 5586 5584 5582 5580 5578 5576 5575 5573 5571
5644 5643 5642 5641 5640 5639 5637 5635 5633 5631 5630 5627 5625 5625 5624 5625 5619 5618 5613 5609 5605 5603 5601 5597 5594 5591 5588 5586 5584 5582 5580 5579 5578 5577 5576 5575 5573 5571 5570 5568 5567 5566 5564
5637 5637 5635 5633 5633 5632 5630 5628 5626 5625 5623 5622 5619 5617 5614 5612 5611 5609 5608 5603 5598 5594 5591 5588 5584 5581 5578 5575 5573 5571 5570 5569 5568 5567 5566 5565 5563 5562 5561 5560 5560 5559 5558
5630 5629 5628 5627 5626 5624 5623 5621 5620 5618 5616 5614 5612 5610 5608 5605 5603 5600 5600 5597 5593 5588 5582 5577 5574 5571 5568 5565 5562 5560 5559 5557 5556 5556 5555 5554 5552 5551 5551 5551 5551 5551 5551
5622 5622 5620 5620 5619 5617 5615 5613 5611 5609 5608 5605 5603 5601 5599 5597 5594 5592 5590 5588 5584 5579 5573 5567 5563 5560 5556 5554 5551 5549 5547 5546 5545 5544 5543 5542 5540 5540 5539 5540 5540 5541 5542
5616 5614 5613 5612 5610 5608 5607 5604 5603 5601 5598 5596 5594 5591 5589 5586 5582 5581 5579 5576 5574 5571 5566 5560 5553 5549 5545 5543 5540 5537 5536 5534 5533 5532 5531 5529 5528 5528 5527 5528 5529 5530 5532
5605 5605 5603 5602 5600 5599 5597 5595 5592 5590 5588 5586 5583 5580 5577 5574 5571 5569 5566 5564 5563 5563 5562 5554 5545 5539 5535 5531 5528 5526 5525 5522 5521 5519 5518 5517 5516 5515 5515 5516 5518 5519 5521
5595 5594 5593 5591 5589 5588 5586 5584 5581 5579 5577 5574 5571 5569 5566 5563 5560 5557 5554 5552 5550 5550 5551 5543 5534 5528 5524 5520 5517 5515 5513 5511 5509 5507 5506 5505 5504 5504 5504 5504 5505 5507 5509
5584 5583 5583 5581 5579 5577 5575 5573 5570 5567 5565 5562 5559 5557 5554 5551 5548 5546 5543 5541 5539 5537 5536 5529 5522 5516 5513 5510 5506 5504 5501 5500 5498 5496 5494 5493 5493 5492 5492 5493 5494 5495 5497
5572 5572 5571 5569 5567 5565 5563 5563 5560 5556 5553 5551 5548 5546 5543 5539 5537 5535 5532 5530 5527 5525 5523 5519 5512 5506 5502 5499 5496 5493 5490 5488 5486 5484 5483 5482 5481 5481 5481 5482 5483 5484 5485
5560 5559 5560 5558 5555 5553 5551 5550 5548 5545 5542 5540 5537 5535 5532 5529 5526 5524 5521 5518 5515 5512 5511 5509 5503 5496 5492 5488 5485 5482 5479 5477 5475 5474 5472 5471 5470 5470 5470 5470 5471 5473 5474
5547 5546 5546 5545 5543 5541 5539 5538 5535 5532 5528 5527 5525 5523 5520 5518 5515 5512 5510 5507 5504 5502 5500 5497 5493 5488 5483 5479 5475 5473 5470 5467 5465 5463 5462 5461 5460 5459 5459 5459 5460 5462 5463
5533 5533 5532 5530 5530 5529 5528 5525 5521 5519 5516 5514 5511 5509 5506 5505 5503 5501 5499 5497 5494 5493 5491 5487 5483 5479 5475 5471 5469 5466 5463 5458 5455 5453 5453 5451 5451 5450 5450 5449 5450 5451 5453
5519 5520 5519 5518 5518 5516 5514 5511 5509 5507 5504 5502 5499 5497 5495 5493 5490 5488 5486 5484 5483 5483 5481 5478 5476 5473 5470 5466 5462 5458 5454 5451 5450 5445 5445 5443 5442 5442 5441 5441 5441 5442 5444
5506 5507 5506 5505 5505 5503 5501 5499 5496 5495 5493 5491 5489 5487 5484 5482 5480 5478 5475 5472 5470 5469 5468 5468 5467 5466 5463 5458 5454 5450 5447 5446 5445 5439 5437 5437 5434 5434 5432 5432 5432 5433 5435
5494 5495 5494 5493 5492 5490 5488 5486 5485 5483 5481 5479 5478 5476 5474 5472 5469 5467 5465 5463 5461 5458 5456 5455 5455 5454 5451 5449 5445 5443 5440 5435 5431 5429 5428 5429 5427 5427 5424 5425 5425 5425 5426
5482 5482 5481 5481 5480 5479 5477 5475 5474 5472 5470 5468 5466 5465 5463 5461 5458 5456 5454 5452 5450 5447 5444 5443 5442 5442 5439 5437 5436 5433 5430 5429 5428 5424 5421 5422 5421 5419 5418 5418 5417 5417 5418
5470 5470 5470 5469 5469 5468 5466 5465 5463 5462 5461 5459 5456 5454 5452 5451 5448 5446 5445 5443 5441 5439 5436 5434 5433 5431 5429 5427 5426 5425 5424 5423 5422 5419 5415 5414 5414 5412 5412 5411 5410 5410 5411